Regional Weather Roundup
Issued by NWS Kansas City/Pleasant Hill, MO

Home | Current Version | Previous Version | Text Only | Print | Product List | Glossary On
Versions: 1 2 3 4 5 6 7 8 9 10 11 12 13 14 15 16 17 18 19 20 21 22 23 24 25 26 27 28 29 30 31 32 33 34 35 36 37 38 39 40 41 42 43 44 45 46 47 48 49 50
000
ASUS43 KEAX 050310
RWREAX

WEATHER ROUNDUP FOR EASTERN KANSAS AND NORTHWEST MISSOURI
NATIONAL WEATHER SERVICE KANSAS CITY/PLEASANT HILL MO
1000 PM CDT MON MAY 04 2015

KSZ040-057-103>105-MOZ028-029-037-043-050400-
...KANSAS CITY METROPOLITAN AREA...

CITY           SKY/WX    TMP DP  RH WIND       PRES   REMARKS
K.C. INTL      CLOUDY    63  60  90 E8        30.09R
K.C. DOWNTOWN  CLOUDY    65  61  87 NE6       30.08S
LEES SUMMIT    CLOUDY    65  61  87 NE8       30.09R
OLATHE - IXD   CLOUDY    65  60  84 N6        30.10R
OLATHE - OJC   CLOUDY    66  62  87 NE7       30.08R
LAWRENCE       LGT RAIN  63  61  93 NE9       30.10R

$$

MOZ001>008-011>017-020>025-030>033-038>040-044>046-053-054-050400-
...NORTHERN AND CENTRAL MISSOURI...

CITY           SKY/WX    TMP DP  RH WIND       PRES   REMARKS
ST. JOSEPH     LGT RAIN  63  61  93 SE6       30.09R
MOSBY          LGT RAIN  63  61  94 N3        30.08F
WARRENSBURG    CLOUDY    72  59  64 CALM      30.07R
WHITEMAN AFB   NOT AVBL
CLINTON        CLOUDY    68  63  83 MISG      30.08R
SEDALIA        CLOUDY    70  60  70 SE3       30.08R
WARSAW         NOT AVBL
MARSHALL       CLOUDY    75  63  64 CALM      30.08R
CHILLICOTHE      N/A     64  62  93 NW5       30.09R
MOBERLY        CLOUDY    70  59  68 SE6       30.07R
KIRKSVILLE     CLOUDY    68  64  87 CALM      30.07R

$$

MOZ041-047>049-056>058-063>065-088>090-097-050400-
...EASTERN AND SOUTHERN MISSOURI...

CITY           SKY/WX    TMP DP  RH WIND       PRES   REMARKS
ST. LOUIS INTL MOCLDY    79  54  41 S9        30.10R
SPIRIT OF STL  PTCLDY    73  56  54 S6        30.09R
COLUMBIA       CLOUDY    71  59  65 S7        30.08R
JEFFERSON CITY CLOUDY    70  58  65 SE7       30.07R
MEXICO         CLOUDY    73  66  78 CALM      30.08
HANNIBAL       CLOUDY    68  64  88 E3        30.07S
ROLLA          MOCLDY    68  55  63 S6        30.11R
LEBANON        FAIR      68  54  60 S3        30.13R
OSAGE BEACH    MOCLDY   N/A N/A N/A SE6       30.09R
SPRINGFIELD    CLEAR     67  54  63 S6        30.10R
BRANSON        PTCLDY    68  54  60 CALM      30.13R
NEVADA         MOCLDY    68  59  73 S3        30.11R
JOPLIN         CLEAR     69  58  67 SE5       30.09R
WEST PLAINS    CLEAR     70  54  56 S6        30.14R

$$

IAZ060-094-KSZ022-034>040-054-083-096-NEZ052-066-093-050400-
...KANSAS...SOUTHEAST NEBRASKA AND IOWA...

CITY           SKY/WX    TMP DP  RH WIND       PRES   REMARKS
TOPEKA         CLOUDY    64  60  87 E3        30.11R THUNDER
MANHATTAN      LGT RAIN  61  59  93 S7        30.09R
EMPORIA        CLOUDY    71  58  63 SE5       30.07R
CHANUTE        PTCLDY    68  59  73 SE6       30.07R
WICHITA        CLOUDY    72  58  61 S9        30.03R
OMAHA          CLOUDY    60  56  86 E10       30.07R
LINCOLN        CLOUDY    60  57  89 E8        30.07R FOG
FALLS CITY     LGT RAIN  64  61  90 S14       30.06R
LAMONI         LGT RAIN  64  61  90 CALM      30.09R
DES MOINES     LGT RAIN  64  60  87 E12       30.08S

$$



USA.gov is the U.S. government's official web portal to all federal, state and local government web resources and services.